Home   Weather   Indre Arna   Past weeks

Flag for Norway Past Weather in Indre Arna, Norway — Yesterday and Last 2 Weeks

Now
39 °F

Passing clouds.


Feels Like: 39 °F
Forecast: 31 / 56 °F
Wind: 1 mph from North

Location: Bergen / Florida

Current Time: Apr 30, 2017 at 9:11:04 am

Latest Report: Apr 30, 2017 at 8:00 am


Visibility: 41 mi

Pressure: 30.17 "Hg

Humidity: 67%

Dew Point: 29 °F

Location of Indre ArnaLocation

Past Weather in Indre Arna — Graph

°F

Indre Arna Temperature Yesterday

Maximum temperature yesterday: 53 °F (at 3:00 pm)
Minimum temperature yesterday: 42 °F (at 11:00 pm)
Average temperature yesterday: 48 °F

High & Low Weather Summary for the Past Weeks

 TemperatureHumidityPressure
High53 °F (Apr 29, 3:00 pm)89% (Apr 20, 11:00 am)30.58 "Hg (Apr 20, 11:00 am)
Low33 °F (Apr 24, 1:00 am)26% (Apr 25, 6:00 pm)29.54 "Hg (Apr 24, 5:00 am)
Average42 °F65%29.99 "Hg
* Reported Apr 15 8:00 am — Apr 30 8:00 am, Indre Arna, Weather by CustomWeather, © 2017

Note: Actual official high and low records may vary slightly from our data, if they occured in-between our weather recording intervals... More about our weather records

Advertising

Indre Arna Weather History for the Previous 24 Hours

Scroll right to see more
 ConditionsComfort  
Time TempWeatherWind HumidityBarometerVisibility
8:00 am
Sun, Apr 30
39 °FPassing clouds.1 mph67%30.17 "Hg40 mi
7:00 am36 °FChilly.No wind72%30.17 "HgN/A
6:00 am36 °FChilly.1 mph72%30.17 "HgN/A
5:00 am36 °FChilly.1 mph70%30.17 "HgN/A
4:00 am37 °FChilly.1 mph67%30.18 "HgN/A
3:00 am38 °FChilly.1 mph63%30.18 "HgN/A
2:00 am39 °FChilly.1 mph58%30.18 "HgN/A
1:00 am40 °FChilly.1 mph62%30.19 "HgN/A
12:00 am42 °FQuite cool.2 mph55%30.19 "HgN/A
11:00 pm
Sat, Apr 29
42 °FPassing clouds.2 mph54%30.19 "Hg28 mi
10:00 pm44 °FQuite cool.1 mph59%30.18 "HgN/A
9:00 pm47 °FCool.2 mph57%30.17 "HgN/A
8:00 pm48 °FPartly sunny.5 mph53%30.17 "Hg28 mi
7:00 pm49 °FCool.3 mph48%30.16 "HgN/A
6:00 pm51 °FCool.3 mph39%30.15 "HgN/A
5:00 pm51 °FPartly sunny.5 mph39%30.15 "Hg31 mi
4:00 pm52 °FCool.5 mph37%30.15 "HgN/A
3:00 pm53 °FCool.5 mph33%30.15 "HgN/A
2:00 pm52 °FPartly sunny.5 mph36%30.14 "Hg25 mi
1:00 pm52 °FCool.5 mph35%30.14 "HgN/A
12:00 pm51 °FCool.5 mph35%30.14 "HgN/A
11:00 am50 °FOvercast.5 mph38%30.13 "Hg19 mi
10:00 am49 °FCool.2 mph41%30.11 "HgN/A
9:00 am49 °FCool.6 mph42%30.09 "HgN/A
Weather by CustomWeather, © 2017

See weather overviewHow to use our weather pages